Regional Weather Roundup
Issued by NWS

Home | Current Version | Previous Version | Graphics & Text | Print | Product List | Glossary Off
Versions: 1 2 3 4 5 6 7 8 9 10 11 12 13 14 15 16 17 18 19 20 21 22 23 24 25 26 27 28 29 30 31 32 33 34 35 36 37 38 39 40 41 42 43 44 45 46 47 48 49 50

000
ASUS43 KMKX 071600
RWRWI

WISCONSIN REGIONAL WEATHER ROUNDUP
NATIONAL WEATHER SERVICE MILWAUKEE/SULLIVAN WI
1000 AM CST WED DEC 07 2016

NOTE: "FAIR" INDICATES FEW OR NO CLOUDS BELOW 12,000 FEET WITH NO
SIGNIFICANT WEATHER AND/OR OBSTRUCTIONS TO VISIBILITY.

WIZ001-002-006>008-014>016-023>028-071700-
NORTHWEST WISCONSIN

CITY           SKY/WX    TMP DP  RH WIND       PRES   REMARKS
SUPERIOR ARPT  FLURRIES  19  11  72 W21G26    29.82R WCI   2
ASHLAND        LGT SNOW  19  12  74 SW18G37   29.79S WCI   4
HAYWARD        LGT SNOW  16   9  74 SW13G24   29.85R WCI   2
SIREN          FLURRIES  17   8  70 W21G32    29.91R WCI   0
CUMBERLAND     FLURRIES  18  10  73 W22       29.90R WCI   0
RICE LAKE      FLURRIES  18  11  74 W13G20    29.93R WCI   4
CHETEK         FLURRIES  18  11  75 W12G17    29.93R WCI   5
LADYSMITH      LGT SNOW  18  12  77 SW15G23   29.89R WCI   4
EAU CLAIRE     NOT AVBL
MENOMONIE      CLOUDY    19  12  74 SW18      29.98R WCI   4
NEW RICHMOND   FLURRIES  19  10  70 W21G28    29.97R WCI   2
OSCEOLA        FLURRIES  19  11  70 W17       30.01R WCI   4
$$

WIZ003>005-009-010-017-018-071700-
NORTH CENTRAL WISCONSIN

CITY           SKY/WX    TMP DP  RH WIND       PRES   REMARKS
MANITOWISH WTR LGT SNOW  15   9  77 W16G28    29.76R WCI  -1
ARBOR VITAE    LGT SNOW  18  12  78 W14G23    29.77S WCI   4
WOODRUFF       LGT SNOW  18  12  78 W14G23    29.77S WCI   4
RHINELANDER    LGT SNOW  17  12  80 W16G25    29.79R WCI   2
EAGLE RIVER    LGT SNOW  17   9  72 W17G25    29.75R WCI   1
LAND O LAKES   LGT SNOW  18  13  80 SW10G23   29.75R WCI   6
PHILLIPS       LGT SNOW  16  11  82 SW15G22   29.81R WCI   1
TOMAHAWK       LGT SNOW  16  10  79 W13G20    29.83S WCI   2
MEDFORD        LGT SNOW  15  10  80 SW17G25   29.86S WCI  -2
MERRILL        LGT SNOW  17  11  77 W18G28    29.87S WCI   0
$$

WIZ029-030-035-036-043>047-071700-
CENTRAL WISCONSIN

CITY           SKY/WX    TMP DP  RH WIND       PRES   REMARKS
WAUSAU         LGT SNOW  17  11  77 W16G24    29.89R WCI   2
MOSINEE        NOT AVBL
MARSHFIELD     FLURRIES  17  11  77 W16G26    29.91R WCI   2
STEVENS POINT  FLURRIES  17  11  78 SW20G28   29.93S WCI   0
WAUPACA        PTSUNNY   23  14  70 W21       29.96R WCI   8
WAUTOMA        CLOUDY    20  13  74 W16G26    29.99R WCI   6
WISC RAPIDS    CLOUDY    19  13  77 W13G21    29.97R WCI   6
CAMP DOUGLAS   NOT AVBL
$$

WIZ011>013-019>022-031-037>040-048>050-071700-
NORTHEAST WISCONSIN

CITY           SKY/WX    TMP DP  RH WIND       PRES   REMARKS
ANTIGO         LGT SNOW  15  10  80 W23G30    29.83S WCI  -3
SHAWANO        CLOUDY    23  14  68 W15G25    29.91R WCI  10
OCONTO         CLOUDY    23  13  66 W15G26    29.89S WCI  10
STURGEON BAY   CLOUDY    23  16  74 W21G28    29.89R WCI   8
GREEN BAY      FLURRIES  24  15  68 W20G29    29.93R WCI  10
MANITOWOC      NOT AVBL
APPLETON       PTSUNNY   21  12  68 W21G28    29.93R WCI   6
CLINTONVILLE   FLURRIES  21  12  68 W14G25    29.92S WCI   8
OSHKOSH        MOSUNNY   21  12  68 W17G23    29.97R WCI   7
$$

WIZ032>034-041-042-053>061-071700-
SOUTHWEST WISCONSIN

CITY           SKY/WX    TMP DP  RH WIND       PRES   REMARKS
LA CROSSE      CLOUDY    20  11  68 W16       30.08R WCI   6
SPARTA         FLURRIES  19  13  79 W12G17    30.03R WCI   6
VIROQUA        CLOUDY    15  10  78 W16G24    30.03R WCI   0
BOSCOBEL       PTSUNNY   20  10  65 W16       30.11R WCI   6
PRAIRIE DU CHI CLOUDY    18   9  68 W10G17    30.13R WCI   7
PLATTEVILLE    CLOUDY    18  13  79 W15       30.10R WCI   4
$$

WIZ056-057-062-063-064-067-068-071700-
SOUTH CENTRAL WISCONSIN

CITY           SKY/WX    TMP DP  RH WIND       PRES   REMARKS
REEDSBURG      CLOUDY    18  12  76 W14       30.03R WCI   5
BARABOO/DELLS  CLOUDY    18  12  76 W14G21    30.02R WCI   4
LONE ROCK      MOSUNNY   19  10  68 W16G25    30.08R WCI   4
MINERAL POINT  CLOUDY    19  14  79 W18       30.06R WCI   4
MADISON        PTSUNNY   19  12  74 W12G17    30.04R WCI   7
MIDDLETON      NOT AVBL
WATERTOWN      CLOUDY    20  14  78 W12G18    30.02R WCI   8
MONROE         MOSUNNY   21  14  73 W20       30.06R WCI   6
JANESVILLE     PTSUNNY   25  16  68 SW13G18   30.07R WCI  13
$$

WIZ051-052-058>065-066-070>072-071700-
SOUTHEAST WISCONSIN

CITY           SKY/WX    TMP DP  RH WIND       PRES   REMARKS
MILWAUKEE      PTSUNNY   25  15  66 W15       30.02R WCI  13
WAUKESHA       SUNNY     21  16  79 SW14      30.02R WCI   8
MILWAUKEE/TIMM SUNNY     25  14  63 W15G23    30.02R WCI  12
RACINE         PTSUNNY   24  15  68 W13       30.05R WCI  12
BURLINGTON     MOSUNNY   22  17  78 W15       30.04S WCI   9
KENOSHA        MOSUNNY   24  17  74 W17G23    30.05R WCI  11
FOND DU LAC    PTSUNNY   22  12  65 W14G23    29.99R WCI   9
SHEBOYGAN      SUNNY     23  14  68 W22G31    29.96R WCI   8
WEST BEND      MOSUNNY   23  18  80 W12G22    29.99R WCI  12
JUNEAU         SUNNY     19  13  77 SW18      30.02R WCI   4
$$

LSZ147-162-071700-
LAKE SUPERIOR

STATION/POSITION TIME  TEMP    WIND        PRES    WAVE
                       AIR SEA DIR/SP/G            HT/PER
                 (UTC) (F)     (DEG/KT/KT) (MB)    (FT/S)
DEVILS ISLAND    1500   25     250/ 34/ 41 1006.7R
PORT WING        1530   20     240/ 14/ 20 1009.1R
SAXON HARBOR     1530   20     220/ 15/ 26 1008.8R
$$

LMZ867-665-643>646-071700-
LAKE MICHIGAN

STATION/POSITION TIME  TEMP    WIND        PRES    WAVE
                       AIR SEA DIR/SP/G            HT/PER
                 (UTC) (F)     (DEG/KT/KT) (MB)    (FT/S)
CHAMBERS ISLAND  1540   25     230/ 12/ 17 1010.5S
NORTHPORT PIER   1540   26     240/  6/ 17 1010.8R
SISTER BAY       1508   26     300/ 26/ 31   N/A
ALGOMA LAKESHORE 1436          270/ 18/ 26   N/A
KEWAUNEE LAKESHO 1530   23     270/ 20/ 27 1012.4F
SHEBOYGAN LAKESH 1500   23     260/ 16/ 19 1015.2R
PORT WASHINGTON  1540   25     270/ 12/ 20 1016.3R
MILWAUKEE LAKESH 1530   24     270/ 15/ 20   N/A
KENOSHA   LAKESH 1500   23     250/ 14/ 17 1017.3
$$

TC  - TEMPERATURE IN CELSIUS
VSB - VISIBILITY IN STATUTE MILES
WCI - WIND CHILL INDEX
HX  - HEAT INDEX





USA.gov is the U.S. government's official web portal to all federal, state and local government web resources and services.